Barstow Daggett Airport
KDAG : now visible

Airfield :











YOU CAN JOIN US ON...

 
LOGIN :

Register | Disclaimer

   EN    FR    IT 

 









Legend :    VFR   Marginal VFR   IFR   Intensive IFR   Very Intensive IFR
Visi :
Ceiling :
>= 8 km
>= 3000ft
5 to 8 km
1000 to 3000 ft
1500m to 5 km
500 to 1000 ft
800 to 1500m
200 to 500 ft
< 800m
< 200 ft
Symbols :   Thunderstorms  Fog  Heavy snow  Heavy precipitations  Wind > 20 kt






- Airport Elevation : 1930 ft


KDAG - Barstow Daggett

CURRENT METAR :
  • 121650Z AUTO 30007KT 10SM CLR 29/M01 A3000 RMK AO2 SLP135 T02941011 $

EXPIRED METARs :
  • 121550Z AUTO 31010KT 10SM CLR 27/00 A3000 RMK AO2 SLP133 T02670000 $
  • 121450Z AUTO 28009KT 9SM CLR 23/01 A3000 RMK AO2 SLP133 T02280006 51014 $

TAF KDAG
Valid from the 12 at 12:00 until the 13 at 12:00 UTC


121120Z 1212/1312 27008KT P6SM SKC
FM121900 08009KT P6SM SKC
FM130400 27010KT P6SM SKC
KZLA FIR / North America



MET'MAP, your aeronautical weather chart ! - Copyright ORBIFLY December 2007 - Disclaimer

ORBIFLY MET'MAP TEAM :

Programming & Development : Alexandra Zaïnal
Concept & original design : Baudouin d'Aumeries
Assistance for programming : Marc-Olivier Méhu
Technical & hardware support : Manuel Goepfert

Contact : metmap@orbifly.com




SOURCES & CREDITS :

   NOAA       Earth
Advisory